Location: Unspecified
(0.0000°N, 0.0000°E)
Time: 13:37:19
(UTC+00:00)

ISS - Pass Details

Date: 12 September 2019
Orbit: 411 x 421 km, 51.6° (Epoch: 18 September)

Event Time Altitude Azimuth Distance (km) Brightness Sun altitude
Rises 19:12:17 0° 203° (SSW) 2,344 0.3 -19.0°
Reaches altitude 10° 19:14:29 10° 194° (SSW) 1,478 -0.9 -19.5°
Enters shadow 19:15:49 20° 181° (S) 1,003 -1.9 -19.8°
